| time (UTC) | temp C | wind direction | speed KPH | gust KPH | rain 1hr cm | rain 24hr cm | rain mn cm | humidity % | barometer mb |
| 20260509113044 | 27 | 146 | 3.2 | 22.5 | 0.00 | 0.00 | 0.00 | 39 | 1012.4 |
| 20260509111553 | 27 | 90 | 1.6 | 17.7 | 0.00 | 0.00 | 0.00 | 40 | 1012.7 |
| 20260509110055 | 27 | 167 | 4.8 | 17.7 | 0.00 | 0.00 | 0.00 | 42 | 1013.0 |
| 20260509104547 | 27 | 162 | 0.0 | 19.3 | 0.00 | 0.00 | 0.00 | 42 | 1013.1 |
| 20260509103053 | 27 | 123 | 8.0 | 22.5 | 0.00 | 0.00 | 0.00 | 43 | 1013.4 |
| 20260509101553 | 27 | 154 | 9.7 | 19.3 | 0.00 | 0.00 | 0.00 | 47 | 1013.7 |
| 20260509100100 | 26 | 136 | 4.8 | 20.9 | 0.00 | 0.00 | 0.00 | 46 | 1014.0 |
| 20260509094552 | 26 | 146 | 11.3 | 22.5 | 0.00 | 0.00 | 0.00 | 45 | 1014.2 |
| 20260509093001 | 26 | 126 | 11.3 | 22.5 | 0.00 | 0.00 | 0.00 | 53 | 1014.5 |
| 20260509091511 | 25 | 142 | 11.3 | 20.9 | 0.00 | 0.00 | 0.00 | 60 | 1014.7 |
| 20260509090040 | 25 | 147 | 9.7 | 25.7 | 0.00 | 0.00 | 0.00 | 59 | 1015.0 |
| 20260509084543 | 25 | 126 | 9.7 | 25.7 | 0.00 | 0.00 | 0.00 | 61 | 1015.1 |
| 20260509083041 | 24 | 139 | 6.4 | 17.7 | 0.00 | 0.00 | 0.00 | 69 | 1015.4 |
| 20260509081549 | 23 | 182 | 8.0 | 19.3 | 0.00 | 0.00 | 0.00 | 73 | 1015.5 |
| 20260509080057 | 23 | 153 | 9.7 | 19.3 | 0.00 | 0.00 | 0.00 | 76 | 1015.8 |
| 20260509074547 | 23 | 151 | 11.3 | 17.7 | 0.00 | 0.00 | 0.00 | 78 | 1016.0 |
| 20260509073054 | 22 | 155 | 9.7 | 17.7 | 0.00 | 0.00 | 0.00 | 80 | 1016.1 |
| 20260509071506 | 22 | 152 | 9.7 | 19.3 | 0.00 | 0.00 | 0.00 | 81 | 1016.2 |
| 20260509070123 | 22 | 142 | 9.7 | 17.7 | 0.00 | 0.00 | 0.00 | 81 | 1016.2 |
| 20260509064502 | 21 | 139 | 4.8 | 12.9 | 0.00 | 0.00 | 0.00 | 84 | 1016.1 |
| 20260509063004 | 21 | 142 | 4.8 | 12.9 | 0.00 | 0.00 | 0.00 | 86 | 1016.0 |
| 20260509061528 | 20 | 148 | 3.2 | 12.9 | 0.00 | 0.00 | 0.00 | 87 | 1015.8 |
| 20260509060006 | 20 | 86 | 6.4 | 12.9 | 0.00 | 0.00 | 0.00 | 88 | 1015.8 |
| 20260509054516 | 19 | 110 | 3.2 | 11.3 | 0.00 | 0.00 | 0.00 | 89 | 1015.6 |
| 20260509053009 | 19 | 96 | 8.0 | 14.5 | 0.00 | 0.00 | 0.00 | 90 | 1015.5 |
| 20260509051523 | 18 | 91 | 9.7 | 14.5 | 0.00 | 0.00 | 0.00 | 90 | 1015.3 |
| 20260509050013 | 18 | 96 | 6.4 | 11.3 | 0.00 | 0.00 | 0.00 | 90 | 1015.1 |
| 20260509044524 | 18 | 94 | 3.2 | 8.0 | 0.00 | 0.00 | 0.00 | 90 | 1014.9 |
| 20260509043037 | 18 | 89 | 4.8 | 9.7 | 0.00 | 0.00 | 0.00 | 89 | 1014.8 |
| 20260509041551 | 18 | 84 | 3.2 | 6.4 | 0.00 | 0.00 | 0.00 | 88 | 1014.7 |
| 20260509040059 | 18 | 71 | 0.0 | 6.4 | 0.00 | 0.00 | 0.00 | 87 | 1014.6 |
| 20260509034557 | 19 | 61 | 1.6 | 6.4 | 0.00 | 0.00 | 0.00 | 86 | 1014.4 |
| 20260509033100 | 19 | 53 | 1.6 | 6.4 | 0.00 | 0.00 | 0.00 | 86 | 1014.3 |
| 20260509033002 | 19 | 53 | 1.6 | 6.4 | 0.00 | 0.00 | 0.00 | 86 | 1014.4 |
| 20260509031533 | 19 | 52 | 3.2 | 6.4 | 0.00 | 0.00 | 0.00 | 86 | 1014.2 |
| 20260509030004 | 19 | 40 | 4.8 | 8.0 | 0.00 | 0.00 | 0.00 | 86 | 1014.1 |
| 20260509024532 | 19 | 36 | 4.8 | 9.7 | 0.00 | 0.00 | 0.00 | 86 | 1014.0 |
| 20260509023034 | 19 | 69 | 1.6 | 8.0 | 0.00 | 0.00 | 0.00 | 86 | 1014.0 |
| 20260509021546 | 19 | 41 | 6.4 | 12.9 | 0.00 | 0.00 | 0.00 | 87 | 1014.0 |
| 20260509020054 | 19 | 32 | 1.6 | 12.9 | 0.00 | 0.00 | 0.00 | 87 | 1013.9 |
| 20260509014547 | 19 | 61 | 4.8 | 8.0 | 0.00 | 0.00 | 0.00 | 87 | 1013.9 |
| 20260509013047 | 19 | 55 | 1.6 | 8.0 | 0.00 | 0.00 | 0.00 | 87 | 1013.9 |
| 20260509011601 | 19 | 57 | 3.2 | 6.4 | 0.00 | 0.00 | 0.00 | 87 | 1013.9 |
| 20260509010108 | 19 | 52 | 4.8 | 9.7 | 0.00 | 0.00 | 0.00 | 87 | 1013.9 |
| 20260509004600 | 19 | 47 | 3.2 | 8.0 | 0.00 | 0.00 | 0.00 | 87 | 1014.0 |
| 20260509003100 | 19 | 44 | 4.8 | 9.7 | 0.00 | 0.00 | 0.00 | 87 | 1013.9 |
| 20260509001512 | 19 | 44 | 1.6 | 8.0 | 0.00 | 0.00 | 0.00 | 87 | 1013.9 |
| 20260509000004 | 19 | 39 | 3.2 | 6.4 | 0.00 | 0.00 | 0.00 | 87 | 1013.8 |
| 20260508234528 | 19 | 55 | 0.0 | 0.0 | 0.00 | 0.00 | 0.00 | 87 | 1013.8 |
| 20260508233030 | 19 | 48 | 1.6 | 6.4 | 0.00 | 0.00 | 0.00 | 87 | 1013.9 |
| 20260508231549 | 19 | 53 | 4.8 | 9.7 | 0.00 | 0.00 | 0.00 | 87 | 1013.9 |
| 20260508230054 | 19 | 42 | 1.6 | 8.0 | 0.00 | 0.00 | 0.00 | 87 | 1013.8 |
| 20260508224543 | 19 | 57 | 1.6 | 9.7 | 0.00 | 0.00 | 0.00 | 87 | 1013.8 |
| 20260508223056 | 19 | 43 | 0.0 | 9.7 | 0.00 | 0.00 | 0.00 | 87 | 1013.7 |
| 20260508221528 | 20 | 57 | 3.2 | 9.7 | 0.00 | 0.00 | 0.00 | 87 | 1013.7 |
| 20260508220131 | 20 | 58 | 3.2 | 11.3 | 0.00 | 0.00 | 0.00 | 87 | 1013.7 |
| 20260508214509 | 20 | 53 | 3.2 | 9.7 | 0.00 | 0.00 | 0.00 | 87 | 1013.9 |